Home > Weather > Waterbury > Past weeks

Flag for USA Past Weather in Waterbury, Connecticut, USA — Yesterday and Last 2 Weeks

Now
72 °F

Mild.


Feels Like: 71 °F
Forecast: 66 / 85 °F
Wind: 3 mph from Northeast

Location: Oxford

Current Time: Jul 29, 2016 at 10:03:46 PM

Latest Report: Jul 29, 2016 at 9:35 PM


Visibility: 10 mi

Pressure: 29.94 "Hg

Humidity: 83%

Dew Point: 66 °F

Location of WaterburyLocation

Past Weather in Waterbury — Graph

°F

Waterbury Temperature Yesterday

Maximum temperature yesterday: 90 °F (at 1:50 PM)
Minimum temperature yesterday: 64 °F (at 4:55 AM)
Average temperature yesterday: 75 °F

High & Low Weather Summary for the Past Weeks

 TemperatureHumidityPressure
High93 °F (Jul 27, 3:50 PM)94% (Jul 15, 12:55 AM)30.27 "Hg (Jul 15, 12:55 AM)
Low54 °F (Jul 20, 4:35 AM)30% (Jul 27, 3:50 PM)29.81 "Hg (Jul 22, 8:50 PM)
Average73 °F69%30.00 "Hg
* Reported Jul 14 8:50 PM — Jul 29 8:50 PM, Waterbury, Weather by CustomWeather, © 2016

Note: Actual official high and low records may vary slightly from our data, if they occured in-between our weather recording intervals... More about our weather records

Advertising

Waterbury Weather History for the Previous 24 Hours

Scroll right to see more
 ConditionsComfort  
Time TempWeatherWind HumidityBarometerVisibility
8:50 PM
Fri, Jul 29
72 °FPartly sunny.3 mph83%29.94 "Hg10 mi
7:50 PM73 °FPartly sunny.3 mph83%29.92 "Hg10 mi
6:50 PM75 °FRain. Fog.9 mph74%29.92 "Hg2 mi
5:50 PM82 °FPartly sunny.6 mph58%29.89 "Hg10 mi
4:50 PM82 °FScattered clouds.6 mph51%29.88 "Hg10 mi
3:50 PM82 °FScattered clouds.6 mph55%29.88 "Hg10 mi
2:50 PM81 °FPartly sunny.7 mph58%29.88 "Hg10 mi
1:50 PM81 °FPartly sunny.5 mph58%29.88 "Hg10 mi
12:50 PM77 °FPartly sunny.9 mph65%29.90 "Hg10 mi
12:04 PM75 °FPartly sunny.6 mph74%29.91 "Hg8 mi
11:50 AM75 °FPartly sunny.6 mph74%29.91 "Hg8 mi
10:50 AM72 °FPartly sunny.5 mph83%29.91 "Hg8 mi
10:02 AM72 °FFog.7 mph83%29.90 "Hg6 mi
9:45 AM72 °FFog.7 mph83%29.90 "Hg6 mi
8:50 AM70 °FLight rain. Fog.6 mph83%29.90 "Hg6 mi
7:50 AM70 °FLight rain. Fog.5 mph83%29.89 "Hg6 mi
6:50 AM70 °FLight rain. Fog.5 mph83%29.89 "Hg4 mi
5:50 AM70 °FLight rain. Fog.6 mph83%29.90 "Hg1 mi
5:35 AM70 °FMild.No wind88%29.90 "Hg5 mi
5:15 AM70 °FMild.No wind88%29.90 "Hg4 mi
4:55 AM72 °FMild.No wind83%29.90 "Hg3 mi
4:35 AM72 °FMild.No wind83%29.91 "Hg5 mi
4:15 AM72 °FMild.5 mph83%29.90 "Hg7 mi
3:55 AM72 °FMild.3 mph83%29.90 "Hg10 mi
3:35 AM72 °FMild.No wind83%29.90 "Hg9 mi
3:15 AM72 °FMild.No wind83%29.90 "Hg10 mi
2:55 AM72 °FMild.No wind78%29.90 "Hg10 mi
2:35 AM72 °FMild.No wind83%29.90 "Hg10 mi
2:15 AM73 °FMild.No wind74%29.92 "Hg10 mi
1:55 AM73 °FMild.5 mph74%29.92 "Hg10 mi
1:35 AM73 °FMild.No wind74%29.92 "Hg10 mi
1:15 AM73 °FMild.6 mph74%29.92 "Hg10 mi
12:55 AM73 °FMild.6 mph74%29.93 "Hg10 mi
12:35 AM73 °FMild.3 mph74%29.93 "Hg10 mi
12:15 AM75 °FMild.No wind69%29.93 "Hg10 mi
11:55 PM
Thu, Jul 28
75 °FMild.3 mph69%29.92 "Hg10 mi
11:35 PM75 °FMild.3 mph69%29.93 "Hg10 mi
11:15 PM75 °FMild.No wind69%29.93 "Hg10 mi
10:55 PM75 °FMild.No wind74%29.93 "Hg10 mi
10:35 PM75 °FMild.3 mph74%29.94 "Hg10 mi
10:15 PM75 °FMild.No wind74%29.93 "Hg10 mi
Weather by CustomWeather, © 2016

See weather overviewHow to use our weather pages